Regional Weather Roundup
Issued by NWS

Home | Current Version | Previous Version | Graphics & Text | Print | Product List | Glossary On
Versions: 1 2 3 4 5 6 7 8 9 10 11 12 13 14 15 16 17 18 19 20 21 22 23 24 25 26 27 28 29 30 31 32 33 34 35 36 37 38 39 40 41 42 43 44 45 46 47 48 49 50
000
ASUS43 KTOP 261459
RWRKS

WEATHER ROUNDUP FOR KANSAS
NATIONAL WEATHER SERVICE GOODLAND KS
1000 AM CDT FRI MAY 26 2017

NOTE:  "FAIR" INDICATES FEW OR NO CLOUDS BELOW 12,000 FEET WITH NO
SIGNIFICANT WEATHER AND/OR OBSTRUCTIONS TO VISIBILITY.

KSZ001>006-013>018-027>032-041>047-261600-
NORTHWEST KANSAS

CITY           SKY/WX    TMP DP  RH WIND       PRES   REMARKS
GOODLAND       SUNNY     58  45  62 NE16      29.94R
HAYS           SUNNY     66  56  70 N18       29.83S
HILL CITY      SUNNY     64  49  57 N15       29.88S
RUSSELL        SUNNY     67  57  70 N17G24    29.80S
$$

KSZ061>065-074>080-084>089-261600-
SOUTHWEST KANSAS

CITY           SKY/WX    TMP DP  RH WIND       PRES   REMARKS
DODGE CITY     SUNNY     69  55  60 N18       29.85S
ELKHART          N/A     66  44  45 N8          N/A
GARDEN CITY    SUNNY     70  51  51 N24       29.86S
GREAT BEND     SUNNY     68  59  73 N20       29.82R
LIBERAL        SUNNY     70  51  51 N18       29.88R
$$

KSZ066>073-081>083-090>101-261600-
SOUTHEAST KANSAS

CITY           SKY/WX    TMP DP  RH WIND       PRES   REMARKS
CHANUTE        SUNNY     76  64  66 S5        29.71R
COFFEYVILLE    SUNNY     77  69  76 S9        29.68R
HUTCHINSON     SUNNY     75  60  59 N14       29.76R
MEDICINE LODGE   N/A     74  59  59 N16       29.76R
NEWTON         SUNNY     73  63  70 N14       29.75R
PARSONS        SUNNY     77  64  64 S9        29.70R
WICHITA INTL   MOSUNNY   73  63  70 N10       29.74R
WICHITA JABRA  SUNNY     74  64  71 N14       29.74R
WINFIELD       SUNNY     75  64  68 N9        29.72R
$$

KSZ007>012-019>026-033>040-048>060-102>105-261600-
NORTHEAST KANSAS

CITY           SKY/WX    TMP DP  RH WIND       PRES   REMARKS
CONCORDIA      SUNNY     69  59  70 N16       29.79R
EMPORIA        SUNNY     72  63  73 N7        29.73R
LAWRENCE       SUNNY     74  64  71 CALM      29.73R
MANHATTAN      SUNNY     75  66  73 NW7       29.74R
OLATHE IND     SUNNY     72  62  71 CALM      29.74R
OLATHE EXE     SUNNY     73  63  70 CALM      29.74R
SALINA         SUNNY     73  62  68 NW13      29.78R
TOPEKA BILLARD SUNNY     74  64  71 CALM      29.73R
TOPEKA FORBES  SUNNY     74  64  71 NW5       29.74R
$$



USA.gov is the U.S. government's official web portal to all federal, state and local government web resources and services.